sat.trackr.live / text

‹ back to catalog

COSMOS 2576

NORAD 59773 · 2024-092A

PAYLOAD ACTIVE UNKNOWN

§ Identity

Operator
Country
CIS
Launch date
2024-05-16
Launch site
PLMSC
Launch vehicle
Mass (kg)
RCS (m²)

External: N2YO · Heavens-Above · Gunter

§ Orbital elements

Epoch: 2026-09-22T17:15:39.528864Z

Period
94.79 min
Inclination
97.4466°
Eccentricity
0.0004891
Mean motion
15.19127457 rev/d
Perigee alt
505.1 km
Apogee alt
511.8 km
Semi-major
6,886.6 km
B*
2.0176e-4
RAAN
20.4209°
Arg perigee
27.8477°
Mean anomaly
332.3019°
Rev number
13,120

§ Raw data

COSMOS 25761 59773U 24092A   26265.71920751  .00004170  00000+0  20176-3 0  99912 59773  97.4466  20.4209 0004891  27.8477 332.3019 15.19127457131203

JSON: /api/v1/satellites/59773 · /tle

For live sub-satellite position, see the globe view (requires WebGL).

§ Visibility from observer

Set your observer location to see the next 7 days of passes ≥ 10°. The values pass through the URL so the page stays shareable.

No JS? Fill the form by hand. The geolocation button needs JavaScript.

§ Radio — SatNOGS DB

ModeDescriptionDownlinkUplink
FM S-band telemetry 2.284 GHz

1 transmitter · refreshed weekly from db.satnogs.org